• In Russia
  • List of Countries
  • For 7 days
  • Water Temperature
  • Satellite Maps
  • Weather Map
  • Weather Widgets
  • user-avatar
    Login

    Hourly Weather Samarta

    Today, 24 March, Sunday

    Time Temperature Precipitation Wind Pressure Humidity
    00:00 -8°C° 0 mm 3 mps 680 mmHg 92%
    01:00 -8°C° 0 mm 3 mps 680 mmHg 93%
    02:00 -8°C° 0 mm 3 mps 680 mmHg 93%
    03:00 -9°C° 0 mm 4 mps 680 mmHg 93%
    04:00 -9°C° 0 mm 4 mps 680 mmHg 93%
    05:00 -9°C° 0 mm 4 mps 680 mmHg 90%
    06:00 -10°C° 0 mm 5 mps 680 mmHg 87%
    07:00 -8°C° 0 mm 5 mps 680 mmHg 83%
    08:00 -8°C° 0 mm 6 mps 680 mmHg 77%
    09:00 -8°C° 0 mm 6 mps 680 mmHg 72%
    10:00 -6°C° 0 mm 6 mps 680 mmHg 66%
    11:00 -6°C° 0.1 mm 7 mps 680 mmHg 63%
    12:00 -6°C° 0.1 mm 7 mps 680 mmHg 60%
    13:00 -6°C° 0.1 mm 7 mps 680 mmHg 57%
    14:00 -6°C° 0 mm 7 mps 680 mmHg 57%
    15:00 -6°C° 0 mm 7 mps 680 mmHg 57%
    16:00 -5°C° 0 mm 6 mps 680 mmHg 58%
    17:00 -7°C° 0 mm 5 mps 681 mmHg 63%
    18:00 -8°C° 0 mm 4 mps 681 mmHg 69%
    19:00 -10°C° 0 mm 4 mps 681 mmHg 75%
    20:00 -9°C° 0 mm 3 mps 682 mmHg 80%
    21:00 -10°C° 0 mm 3 mps 682 mmHg 84%
    22:00 -10°C° 0 mm 2 mps 682 mmHg 89%
    23:00 -12°C° 0 mm 2 mps 682 mmHg 90%

    Tomorrow, 25 March, Monday

    Time Temperature Precipitation Wind Pressure Humidity
    00:00 -13°C° 0 mm 2 mps 683 mmHg 92%
    01:00 -11°C° 0 mm 1 mps 683 mmHg 94%
    02:00 -12°C° 0 mm 1 mps 683 mmHg 94%
    03:00 -13°C° 0 mm 1 mps 683 mmHg 94%
    04:00 -13°C° 0 mm 0 mps 683 mmHg 95%
    05:00 -13°C° 0 mm 0 mps 684 mmHg 92%
    06:00 -12°C° 0 mm 0 mps 684 mmHg 89%
    07:00 -11°C° 0 mm 0 mps 684 mmHg 86%
    08:00 -9°C° 0 mm 0 mps 684 mmHg 75%
    09:00 -7°C° 0 mm 0 mps 685 mmHg 65%
    10:00 -3°C° 0 mm 1 mps 685 mmHg 55%
    11:00 -3°C° 0 mm 1 mps 684 mmHg 51%
    12:00 -2°C° 0 mm 1 mps 684 mmHg 48%
    13:00 -1°C° 0 mm 1 mps 684 mmHg 44%
    14:00 -1°C° 0 mm 1 mps 683 mmHg 46%
    15:00 -1°C° 0 mm 1 mps 683 mmHg 48%
    16:00 -2°C° 0 mm 0 mps 682 mmHg 50%
    17:00 -2°C° 0 mm 1 mps 682 mmHg 59%
    18:00 -4°C° 0 mm 1 mps 683 mmHg 67%
    19:00 -6°C° 0 mm 1 mps 683 mmHg 76%
    20:00 -6°C° 0.1 mm 1 mps 683 mmHg 80%
    21:00 -6°C° 0.1 mm 1 mps 683 mmHg 85%
    22:00 -6°C° 0.1 mm 1 mps 683 mmHg 89%
    23:00 -6°C° 0.1 mm 0 mps 683 mmHg 91%

    Day after tomorrow, 26 March, Tuesday

    Time Temperature Precipitation Wind Pressure Humidity
    00:00 -7°C° 0.1 mm 0 mps 683 mmHg 92%
    01:00 -7°C° 0.1 mm 0 mps 683 mmHg 93%
    02:00 -7°C° 0 mm 0 mps 684 mmHg 94%
    03:00 -8°C° 0 mm 1 mps 684 mmHg 95%
    04:00 -8°C° 0 mm 1 mps 684 mmHg 95%
    05:00 -8°C° 0 mm 1 mps 685 mmHg 92%
    06:00 -9°C° 0 mm 2 mps 685 mmHg 90%
    07:00 -9°C° 0 mm 2 mps 686 mmHg 87%
    08:00 -8°C° 0 mm 2 mps 686 mmHg 77%
    09:00 -8°C° 0 mm 3 mps 687 mmHg 67%
    10:00 -7°C° 0 mm 3 mps 687 mmHg 58%
    11:00 -6°C° 0 mm 3 mps 688 mmHg 53%
    12:00 -5°C° 0 mm 3 mps 688 mmHg 48%
    13:00 -5°C° 0 mm 3 mps 688 mmHg 43%
    14:00 -5°C° 0 mm 3 mps 689 mmHg 44%
    15:00 -5°C° 0 mm 4 mps 689 mmHg 45%
    16:00 -5°C° 0 mm 4 mps 689 mmHg 46%
    17:00 -7°C° 0 mm 3 mps 690 mmHg 55%
    18:00 -9°C° 0 mm 3 mps 690 mmHg 64%
    19:00 -12°C° 0 mm 3 mps 691 mmHg 72%
    20:00 -12°C° 0 mm 2 mps 691 mmHg 75%
    21:00 -13°C° 0 mm 2 mps 691 mmHg 78%
    22:00 -14°C° 0 mm 2 mps 692 mmHg 80%
    23:00 -14°C° 0 mm 2 mps 692 mmHg 83%

    27 March, Wednesday

    Time Temperature Precipitation Wind Pressure Humidity
    00:00 -15°C° 0 mm 2 mps 692 mmHg 86%
    01:00 -13°C° 0 mm 1 mps 692 mmHg 89%
    02:00 -13°C° 0 mm 1 mps 692 mmHg 91%
    03:00 -14°C° 0 mm 1 mps 692 mmHg 93%
    04:00 -14°C° 0 mm 1 mps 692 mmHg 95%
    05:00 -15°C° 0 mm 2 mps 693 mmHg 92%
    06:00 -14°C° 0 mm 2 mps 693 mmHg 89%
    07:00 -13°C° 0 mm 2 mps 693 mmHg 86%
    08:00 -12°C° 0 mm 3 mps 693 mmHg 78%
    09:00 -9°C° 0 mm 3 mps 693 mmHg 71%
    10:00 -8°C° 0 mm 4 mps 693 mmHg 63%
    11:00 -8°C° 0 mm 4 mps 692 mmHg 61%
    12:00 -7°C° 0 mm 4 mps 692 mmHg 58%
    13:00 -5°C° 0 mm 4 mps 691 mmHg 56%
    14:00 -5°C° 0.1 mm 4 mps 691 mmHg 58%
    15:00 -6°C° 0.1 mm 5 mps 690 mmHg 61%
    16:00 -6°C° 0.1 mm 5 mps 690 mmHg 63%
    17:00 -7°C° 0 mm 4 mps 690 mmHg 68%
    18:00 -7°C° 0 mm 3 mps 690 mmHg 74%
    19:00 -8°C° 0 mm 2 mps 690 mmHg 79%
    20:00 -9°C° 0 mm 2 mps 690 mmHg 82%
    21:00 -9°C° 0 mm 2 mps 689 mmHg 85%
    22:00 -10°C° 0 mm 2 mps 689 mmHg 88%
    23:00 -9°C° 0 mm 1 mps 689 mmHg 89%

    28 March, Thursday

    Time Temperature Precipitation Wind Pressure Humidity
    00:00 -10°C° 0 mm 1 mps 689 mmHg 91%
    01:00 -10°C° 0 mm 1 mps 689 mmHg 92%
    02:00 -10°C° 0 mm 1 mps 689 mmHg 93%
    03:00 -11°C° 0 mm 1 mps 688 mmHg 94%
    04:00 -11°C° 0 mm 1 mps 688 mmHg 95%
    05:00 -11°C° 0 mm 1 mps 688 mmHg 92%
    06:00 -10°C° 0 mm 1 mps 689 mmHg 90%
    07:00 -9°C° 0 mm 1 mps 689 mmHg 88%
    08:00 -8°C° 0 mm 2 mps 689 mmHg 79%
    09:00 -6°C° 0 mm 2 mps 689 mmHg 70%
    10:00 -5°C° 0 mm 3 mps 689 mmHg 62%
    11:00 -4°C° 0 mm 3 mps 688 mmHg 58%
    12:00 -3°C° 0 mm 4 mps 688 mmHg 53%
    13:00 -2°C° 0 mm 4 mps 687 mmHg 49%
    14:00 -2°C° 0 mm 4 mps 687 mmHg 49%
    15:00 -2°C° 0 mm 4 mps 687 mmHg 49%
    16:00 -2°C° 0 mm 4 mps 686 mmHg 49%
    17:00 -2°C° 0 mm 3 mps 686 mmHg 57%
    18:00 -5°C° 0 mm 3 mps 686 mmHg 66%
    19:00 -6°C° 0 mm 2 mps 686 mmHg 74%
    20:00 -7°C° 0 mm 2 mps 686 mmHg 77%
    21:00 -7°C° 0 mm 2 mps 686 mmHg 81%
    22:00 -7°C° 0 mm 1 mps 685 mmHg 85%
    23:00 -8°C° 0 mm 2 mps 685 mmHg 85%

    29 March, Friday

    Time Temperature Precipitation Wind Pressure Humidity
    00:00 -8°C° 0 mm 2 mps 685 mmHg 85%
    01:00 -8°C° 0 mm 2 mps 685 mmHg 85%
    02:00 -8°C° 0 mm 2 mps 686 mmHg 87%
    03:00 -8°C° 0 mm 2 mps 686 mmHg 89%
    04:00 -8°C° 0 mm 2 mps 686 mmHg 90%
    05:00 -9°C° 0.1 mm 3 mps 686 mmHg 88%
    06:00 -8°C° 0.1 mm 3 mps 687 mmHg 85%
    07:00 -8°C° 0.1 mm 4 mps 687 mmHg 83%
    08:00 -7°C° 0.1 mm 4 mps 687 mmHg 77%
    09:00 -5°C° 0.1 mm 4 mps 688 mmHg 70%
    10:00 -4°C° 0.1 mm 4 mps 688 mmHg 64%
    11:00 -3°C° 0.1 mm 4 mps 688 mmHg 61%
    12:00 -2°C° 0.1 mm 4 mps 688 mmHg 57%
    13:00 -1°C° 0.1 mm 4 mps 688 mmHg 53%
    14:00 -1°C° 0 mm 4 mps 689 mmHg 53%
    15:00 -1°C° 0 mm 4 mps 689 mmHg 53%
    16:00 -1°C° 0 mm 4 mps 689 mmHg 52%
    17:00 -3°C° 0 mm 4 mps 690 mmHg 60%
    18:00 -5°C° 0 mm 3 mps 690 mmHg 68%
    19:00 -6°C° 0 mm 2 mps 690 mmHg 76%
    20:00 -7°C° 0 mm 2 mps 691 mmHg 79%
    21:00 -7°C° 0 mm 2 mps 691 mmHg 83%
    22:00 -8°C° 0 mm 2 mps 691 mmHg 86%
    23:00 -8°C° 0 mm 2 mps 691 mmHg 89%
    Show more